RH
74 81 88 85 86 84 88 91 90 94 97 97 94 81 69 62 87 95 97 92 89 84 90 92 92 92 93 94 90 88 80 66 56 58 83 89 94 97 96 90 82 77 93
69 77 83 84 86 85 86 91 90 91 95 94 88 75 76 92 96 98 92 90 88 89 84 89 92 94 95 96 94 95 93 78 73 63 67 60 64 74 71 74 73 80 88
67 73 89 84 81 85 87 90 89 88 82 86 88 90 82 94 98 92 95 92 86 87 90 93 94 96 95 81 76 75 70 75 80 78 78 73 90 98 91 72 71 94 94
70 72 77 83 80 85 87 82 87 86 83 78 78 82 94 95 97 95 96 92 87 91 92 96 97 93 77 73 73 70 68 66 85 82 70 70 77 96 97 95 97 94 96
70 68 77 80 82 84 79 88 85 78 73 71 72 82 95 93 98 96 94 72 76 94 94 95 94 81 74 72 70 68 66 60 80 74 74 84 81 94 98 97 97 96 96
68 68 82 82 84 84 85 86 76 66 57 60 86 75 93 92 100 97 83 68 49 70 83 86 82 74 71 69 69 66 64 66 70 70 72 82 85 93 90 91 84 84 83
66 69 88 82 86 84 82 80 72 66 58 79 81 79 82 90 87 82 86 78 56 74 78 80 78 73 74 71 72 70 68 69 66 66 70 72 84 91 92 78 68 65 67
67 76 82 88 85 85 83 75 69 71 56 78 84 77 70 88 81 83 94 81 60 69 85 80 73 72 73 71 70 70 70 70 66 65 72 74 87 94 85 60 67 77 90
70 78 82 94 92 86 81 75 75 64 48 78 83 82 83 80 81 82 83 82 75 56 66 65 61 63 66 66 66 66 66 66 63 65 66 70 83 91 82 72 77 81 87
75 80 78 82 84 87 90 80 77 63 40 78 83 81 79 82 84 86 88 83 79 62 62 67 69 68 65 65 66 67 66 67 65 69 66 72 80 87 84 74 66 58 55
77 81 85 79 78 81 82 90 79 69 59 45 82 83 81 76 84 90 90 85 78 65 60 65 66 64 59 59 59 62 66 63 63 62 62 64 76 93 85 77 69 62 52
75 81 86 85 81 82 86 87 81 83 75 65 60 68 62 67 70 79 85 82 78 74 60 67 66 64 61 61 61 56 58 60 58 60 60 55 64 91 96 84 71 69 59
74 77 84 90 84 82 84 84 79 79 77 75 69 67 63 66 69 68 72 78 82 79 75 78 84 76 72 66 59 54 56 59 54 54 57 50 54 77 98 90 83 76 72
88 91 97 99 92 83 82 84 79 77 80 76 78 76 72 68 65 61 63 70 76 68 65 70 68 70 75 76 66 58 54 53 51 50 51 49 50 62 93 97 94 86 87
87 91 96 98 86 87 86 82 79 78 82 79 83 81 76 74 68 67 62 60 61 62 61 65 73 72 73 71 67 66 61 56 54 52 52 51 47 51 61 92 96 97 97
87 82 82 84 87 90 88 86 78 77 78 82 82 84 84 78 75 74 73 71 61 64 65 70 72 75 76 76 74 72 70 67 68 65 59 56 55 54 52 58 92 87 92
86 89 83 83 85 87 88 85 80 80 80 81 83 85 87 84 81 77 75 77 75 72 74 74 77 79 78 77 77 74 73 72 71 72 69 64 64 66 62 51 53 92 86
83 90 91 90 90 86 82 83 81 81 82 81 82 83 86 85 85 82 78 78 80 80 81 80 79 78 78 76 73 71 72 73 74 73 74 72 70 70 70 68 52 53 91
77 82 87 88 87 87 87 83 84 84 85 80 79 80 81 83 85 86 81 79 80 82 83 84 82 81 78 75 76 75 74 74 75 75 75 74 76 77 76 73 72 53 56
56 76 81 86 86 83 84 87 89 90 86 81 81 77 77 77 81 85 84 84 83 83 84 82 84 82 82 79 78 77 76 76 78 76 73 72 73 77 82 81 76 73 65
27 33 73 79 82 82 84 83 87 85 87 90 89 89 87 83 81 86 89 91 94 94 86 85 85 85 83 84 91 78 76 78 76 75 72 72 68 72 75 77 77 74 70
27 29 37 63 75 83 81 81 80 84 82 79 88 92 88 88 92 97 98 99 98 98 95 93 92 94 93 89 86 82 82 61 60 68 69 68 65 63 66 69 69 69 70
34 38 37 39 52 69 92 93 92 90 89 88 94 96 100 96 99 100 100 100 99 100 99 99 98 99 96 92 99 89 86 63 60 67 66 63 62 63 64 65 67 71 73
42 46 47 43 42 48 60 75 78 73 72 70 72 78 79 80 74 70 71 78 92 97 99 99 99 97 100 100 100 99 96 90 86 84 73 66 68 69 71 70 69 70 73
37 51 55 54 51 44 42 44 44 44 46 45 43 44 46 43 43 44 46 47 53 65 67 85 95 99 100 100 100 99 100 100 100 98 88 79 80 75 76 73 69 69 72
56 53 57 56 57 53 48 46 52 53 52 52 56 55 62 70 66 60 61 62 64 70 83 91 99 98 99 100 99 100 98 91 86 89 95 92 87 68 77 77 76 78 82
Wind_Speed
17 20 22 20 18 16 14 14 12 12 12 10 9 8 9 12 14 15 14 13 13 14 14 15 16 16 16 17 17 16 16 16 16 16 14 14 14 12 11 11 10 10 10
22 22 22 20 18 17 14 14 12 10 10 9 8 9 12 14 16 15 13 13 12 14 14 15 15 15 15 15 16 16 15 14 14 14 17 15 13 10 7 8 9 10 9
25 23 20 20 17 16 14 14 12 11 9 9 10 11 14 15 15 14 13 12 13 14 14 14 14 13 13 13 13 13 13 13 12 13 15 11 12 17 10 9 10 10 11
24 22 21 19 18 16 15 13 13 11 9 8 11 11 14 14 14 13 12 12 13 14 13 13 13 12 12 13 11 11 12 13 15 14 11 11 11 16 16 13 10 13 15
23 22 20 20 19 17 16 16 13 9 6 8 11 13 14 13 13 12 11 12 13 13 13 12 11 12 12 11 11 10 10 12 16 12 10 10 10 13 13 12 12 13 16
21 20 21 21 20 18 18 15 11 7 6 10 12 11 13 11 14 10 10 11 12 12 11 11 11 11 11 10 10 10 10 11 11 9 10 10 10 9 9 8 7 8 7
21 19 19 20 19 19 18 14 10 7 9 14 11 11 12 11 10 8 7 9 10 11 10 10 9 9 9 9 8 7 7 9 8 8 7 6 7 7 9 8 9 8 6
20 19 18 19 18 18 17 13 9 6 12 15 12 9 10 11 10 7 7 8 8 8 8 7 7 6 6 6 6 5 4 6 6 6 5 5 7 8 9 9 9 9 9
18 18 18 16 16 16 15 12 8 7 13 16 15 11 11 11 8 5 5 6 6 6 6 5 5 4 3 2 2 2 2 3 4 3 4 3 4 5 8 9 9 10 9
17 16 17 16 16 15 12 11 8 8 11 17 14 13 12 11 9 6 4 4 4 5 5 4 3 2 1 1 1 1 1 2 1 3 2 1 3 3 6 8 8 8 8
15 14 16 15 15 14 12 10 8 8 9 13 13 12 9 6 7 5 7 5 4 4 4 4 3 3 2 3 3 3 1 2 2 2 2 4 1 2 6 7 8 7 7
17 15 14 14 14 13 11 10 9 8 7 8 9 8 7 6 6 7 6 7 6 5 5 5 4 3 2 3 4 4 3 4 4 4 4 6 4 3 5 7 7 7 6
16 15 13 13 13 13 12 11 10 8 8 8 8 8 6 6 4 5 6 5 5 6 5 5 4 4 5 4 5 5 5 5 5 5 6 7 6 6 7 8 8 7 6
14 14 12 14 13 14 12 12 10 10 9 8 8 7 6 6 6 6 6 6 6 6 7 6 5 6 7 6 7 6 6 6 6 7 8 9 9 9 8 9 9 8 7
13 14 13 14 15 15 14 12 10 11 10 9 8 8 7 7 6 6 6 7 7 7 7 7 6 6 7 8 8 8 8 8 9 9 9 12 11 11 11 10 11 10 9
14 15 15 15 15 15 15 13 11 11 11 11 9 9 9 8 8 8 7 7 8 8 7 7 7 7 8 8 9 9 9 9 10 10 10 10 13 12 13 14 13 13 12
15 15 16 15 15 15 15 13 12 11 11 10 9 9 10 10 9 9 9 8 8 8 9 9 9 10 10 10 11 11 11 11 11 11 11 11 11 14 15 16 17 16 15
12 14 15 14 14 15 14 14 13 11 11 10 10 9 10 11 11 10 10 10 9 9 9 10 11 11 12 12 13 13 12 12 13 13 13 13 13 13 15 17 18 18 18
11 13 14 14 15 15 15 14 13 12 13 11 11 11 11 11 12 12 11 11 11 11 12 12 12 13 13 14 14 14 14 15 15 14 15 16 16 17 16 16 19 19 21
9 11 14 14 16 15 14 13 13 13 14 14 14 13 12 12 12 13 13 14 12 13 14 14 15 15 15 16 15 16 16 16 15 16 17 16 15 15 16 15 14 15 18
9 10 13 14 14 15 15 14 13 14 14 14 15 15 14 14 14 14 14 14 14 15 16 16 16 16 16 15 13 14 15 13 14 15 14 12 11 11 10 11 13 13 15
7 10 11 12 13 15 14 13 12 10 11 12 11 13 14 14 14 15 15 16 15 15 17 17 16 16 14 14 10 9 5 13 14 10 10 8 8 8 7 8 9 11 13
6 8 10 12 14 15 14 12 10 11 10 8 7 8 9 13 14 16 15 15 16 17 19 19 18 15 16 13 14 10 2 7 2 5 6 7 9 8 6 8 9 9 10
7 7 9 11 12 13 14 12 12 11 11 7 7 9 10 11 12 12 12 12 11 12 14 16 15 17 18 17 11 15 16 7 4 3 4 6 6 9 8 8 6 7 9
10 9 8 9 9 9 9 8 7 7 5 6 6 6 7 9 10 10 11 12 12 12 14 15 14 15 16 17 17 12 12 11 11 5 4 6 7 7 7 7 6 7 7
12 12 11 10 8 8 8 7 5 5 4 4 5 5 5 5 7 7 8 8 9 9 9 10 11 13 17 17 20 21 17 7 11 8 4 5 7 10 10 8 6 5 5
Wind_Direction
166 163 165 165 161 159 155 147 142 133 123 121 116 109 105 110 109 107 98 92 92 88 90 92 90 89 86 82 80 78 76 77 77 78 84 82 77 72 73 82 66 56 56
159 161 168 166 163 160 156 153 151 136 128 122 114 109 114 111 112 107 99 94 97 97 96 97 95 92 88 82 80 78 76 76 78 82 75 60 64 54 63 73 75 53 46
156 160 161 166 166 161 161 154 144 134 122 117 116 115 120 118 115 109 101 96 96 101 101 101 101 96 89 82 82 78 72 70 71 81 77 74 60 47 56 74 65 51 38
154 159 163 163 161 162 157 152 145 133 123 114 117 120 117 128 117 111 101 94 96 100 105 106 105 99 90 85 83 82 72 71 69 72 74 71 61 53 62 73 60 52 40
154 156 161 161 166 164 155 151 144 133 124 124 127 130 125 126 122 117 100 88 95 99 105 108 108 100 91 84 81 84 79 75 73 72 72 65 69 58 57 63 48 42 47
154 155 164 166 167 162 160 154 143 128 118 129 125 135 132 128 129 122 99 87 94 100 108 112 111 101 92 84 87 89 82 73 69 75 74 61 57 45 32 38 32 28 40
155 156 159 167 169 164 158 152 141 130 130 132 138 154 146 135 131 118 102 96 100 103 106 113 113 105 96 87 95 100 86 75 69 69 72 62 44 44 44 29 20 13 16
155 156 162 169 166 165 159 152 142 133 142 134 127 141 140 136 134 142 129 110 106 113 111 114 115 112 101 95 88 97 79 74 55 62 66 63 56 52 37 24 26 26 28
159 156 160 159 164 167 164 156 152 142 149 149 141 144 139 145 148 134 120 119 112 125 130 126 122 128 123 110 98 73 53 83 58 55 61 60 35 41 16 20 24 27 26
166 162 165 164 164 166 167 167 163 152 151 163 161 162 168 159 157 163 152 149 139 140 154 148 145 163 195 216 232 266 25 55 9 24 21 337 81 344 355 10 15 18 20
171 168 167 170 170 171 170 172 165 155 153 166 177 176 169 165 162 162 196 193 175 170 175 175 183 214 243 270 263 260 283 272 299 312 306 287 265 305 327 351 358 3 8
174 170 174 178 177 177 174 175 173 170 161 166 171 182 186 184 188 185 204 213 209 205 200 202 214 244 269 250 272 283 269 271 281 284 292 286 271 265 284 323 339 342 351
180 176 183 187 184 185 185 182 187 186 181 177 177 174 184 183 195 195 208 214 214 227 219 227 243 241 249 257 264 265 266 269 272 279 278 285 275 260 263 293 309 318 322
191 190 190 196 195 193 193 190 200 197 197 193 190 188 186 195 203 209 212 213 218 224 223 227 236 247 258 263 264 269 271 270 273 274 276 287 279 265 256 264 283 289 288
209 203 204 200 200 197 197 199 203 204 206 208 204 206 208 210 215 217 222 224 224 227 228 234 242 253 259 261 266 270 273 272 271 271 275 279 279 276 268 257 260 264 265
214 205 201 199 201 202 203 207 208 209 210 212 215 218 220 223 225 228 230 230 232 232 235 242 249 259 265 267 270 270 271 270 271 269 269 274 279 278 274 266 256 261 259
217 210 205 198 204 207 209 212 214 214 210 215 221 224 227 229 233 233 237 238 238 239 243 251 257 259 263 266 269 270 269 270 269 269 271 271 273 281 275 269 263 251 256
213 208 204 202 205 210 211 214 217 217 214 218 222 226 228 232 235 237 240 245 244 245 247 251 256 259 262 266 268 269 268 269 270 273 272 270 271 271 275 273 264 258 248
211 209 213 208 211 212 216 219 223 226 223 226 226 228 232 233 235 239 245 249 248 249 250 251 255 257 264 266 270 272 269 270 272 272 270 271 272 270 266 269 272 262 255
217 214 217 215 216 219 219 221 228 231 232 232 233 236 237 239 238 239 247 250 250 251 253 253 255 259 261 269 272 272 273 271 269 267 269 272 272 271 269 265 260 269 267
222 218 219 217 220 216 218 219 227 234 236 235 238 242 242 244 244 245 249 252 251 250 255 255 257 259 262 264 269 271 270 270 266 265 265 268 274 281 276 267 262 263 264
229 220 221 222 218 215 219 219 225 229 235 238 240 243 243 244 245 247 249 252 252 253 258 259 256 254 254 247 248 268 276 282 268 258 251 257 273 279 284 281 270 267 266
214 222 221 225 225 219 213 214 218 230 240 240 239 241 241 246 248 248 250 250 257 256 259 263 259 248 252 253 237 237 242 260 270 218 250 257 276 274 277 287 293 282 278
199 212 205 207 210 211 215 214 220 235 241 236 232 241 249 251 252 254 256 258 260 260 262 264 261 260 255 248 245 246 250 260 242 262 238 257 277 280 287 300 302 302 299
208 202 189 183 189 192 193 194 194 203 211 228 236 244 250 257 255 258 260 262 263 263 264 262 262 257 252 251 246 243 241 228 230 209 252 252 271 284 300 294 297 311 311
193 197 184 174 171 175 176 182 186 193 209 226 233 233 235 244 255 258 262 262 263 265 270 271 267 261 256 252 251 242 226 215 205 200 205 227 247 277 285 295 297 331 330